DW9580 Weather Reports


time (UTC)temp
C
wind
direction
speed
KPH
gust
KPH
rain 1hr
cm
rain 24hr
cm
rain mn
cm
humidity
%
barometer
mb
20260507002705 7 336 0.0 3.2 0.03 0.23 0.03 78 1010.6
20260507002206 7 336 0.0 1.6 0.00 0.20 0.00 78 1010.5
20260507001705 7 336 0.0 1.6 0.00 0.20 0.00 78 1010.5
20260507001205 7 336 0.0 3.2 0.00 0.23 0.00 78 1010.5
20260507000705 7 336 0.0 4.8 0.00 0.23 0.00 78 1010.5
20260507000234 7 336 1.6 4.8 0.00 0.23 0.00 78 1010.5
20260506235705 7 336 1.6 4.8 0.00 0.23 0.00 78 1010.5
20260506234705 7 336 0.0 3.2 0.00 0.23 0.00 78 1010.6
20260506234205 7 336 0.0 4.8 0.00 0.23 0.00 78 1010.6
20260506233705 7 336 1.6 4.8 0.00 0.23 0.00 78 1010.5
20260506233205 7 336 1.6 4.8 0.00 0.23 0.00 78 1010.5
20260506232706 7 336 1.6 4.8 0.00 0.23 0.00 78 1010.4
20260506231705 7 336 1.6 6.4 0.00 0.23 0.00 78 1010.4
20260506231205 7 336 1.6 6.4 0.00 0.23 0.00 78 1010.4
20260506230705 7 336 0.0 1.6 0.00 0.23 0.00 78 1010.3
20260506230234 7 336 0.0 8.0 0.00 0.23 0.00 78 1010.3
20260506225705 7 336 1.6 8.0 0.00 0.23 0.00 78 1010.3
20260506225204 7 336 3.2 8.0 0.00 0.23 0.00 78 1010.3
20260506224705 7 336 3.2 8.0 0.00 0.23 0.00 78 1010.2
20260506224230 7 336 4.8 8.0 0.00 0.23 0.00 78 1010.2
20260506223705 7 336 3.2 6.4 0.03 0.23 0.00 78 1010.1
20260506223206 7 336 3.2 12.9 0.03 0.23 0.00 78 1010.0
20260506222706 7 336 4.8 12.9 0.03 0.23 0.00 78 1010.0
20260506221706 7 336 3.2 9.7 0.03 0.23 0.00 78 1009.9
20260506220209 7 333 1.6 8.0 0.03 0.23 0.23 78 1009.7
20260506215705 7 333 3.2 8.0 0.03 0.25 0.23 78 1009.6
20260506215205 7 333 3.2 9.7 0.03 0.25 0.23 78 1009.5
20260506214705 8 333 3.2 9.7 0.03 0.25 0.23 78 1009.5
20260506214206 8 333 3.2 9.7 0.03 0.25 0.23 78 1009.5
20260506213705 8 333 3.2 9.7 0.00 0.23 0.23 78 1009.4
20260506213205 8 333 3.2 8.0 0.00 0.23 0.23 78 1009.3
20260506212707 8 333 3.2 9.7 0.00 0.23 0.23 78 1009.3
20260506212206 8 333 3.2 9.7 0.00 0.23 0.23 78 1009.4
20260506211205 8 333 1.6 6.4 0.00 0.23 0.23 78 1009.3
20260506210206 8 333 1.6 8.0 0.00 0.23 0.23 78 1009.4
20260506205705 8 333 1.6 8.0 0.00 0.23 0.23 78 1009.3
20260506205205 8 333 3.2 6.4 0.00 0.23 0.23 78 1009.3
20260506204707 8 333 1.6 8.0 0.00 0.25 0.23 78 1009.3
20260506204205 8 333 1.6 8.0 0.00 0.25 0.23 78 1009.3
20260506203706 8 333 3.2 8.0 0.00 0.25 0.23 78 1009.3
20260506203205 7 333 3.2 8.0 0.00 0.25 0.23 78 1009.3
20260506202706 7 333 3.2 6.4 0.00 0.25 0.23 78 1009.3
20260506202205 7 333 1.6 6.4 0.00 0.25 0.23 78 1009.3
20260506201705 7 333 1.6 6.4 0.00 0.25 0.23 78 1009.3
20260506201205 7 333 1.6 6.4 0.00 0.25 0.23 78 1009.2
20260506200706 7 333 1.6 6.4 0.00 0.25 0.23 78 1009.2
20260506200232 7 333 1.6 8.0 0.00 0.25 0.23 78 1009.1
20260506195705 7 333 1.6 8.0 0.00 0.25 0.23 78 1009.1
20260506194706 7 333 1.6 8.0 0.00 0.25 0.23 78 1009.0
20260506194205 7 333 3.2 8.0 0.00 0.25 0.23 78 1009.0
20260506193705 7 333 1.6 8.0 0.00 0.25 0.23 78 1009.0
20260506193206 7 333 3.2 8.0 0.00 0.28 0.23 78 1008.9
20260506192205 7 333 3.2 8.0 0.00 0.28 0.23 78 1008.9
20260506191705 7 333 3.2 8.0 0.00 0.28 0.23 78 1008.8
20260506191205 7 333 3.2 9.7 0.00 0.28 0.23 78 1008.7
20260506190206 8 333 1.6 6.4 0.00 0.28 0.23 78 1008.6
20260506185705 8 338 1.6 6.4 0.03 0.28 0.23 78 1008.6
20260506185205 8 338 1.6 6.4 0.03 0.28 0.23 78 1008.6
20260506184705 8 338 1.6 6.4 0.03 0.28 0.23 78 1008.5
20260506183705 8 338 3.2 6.4 0.03 0.28 0.23 78 1008.5
20260506182205 8 338 1.6 8.0 0.03 0.28 0.23 78 1008.4
20260506181707 8 338 3.2 8.0 0.03 0.28 0.23 78 1008.3
20260506181205 8 338 3.2 12.9 0.03 0.28 0.23 78 1008.3
20260506180706 8 338 3.2 12.9 0.03 0.28 0.23 78 1008.2
20260506175705 8 338 3.2 8.0 0.00 0.25 0.20 78 1008.1
20260506174205 8 338 1.6 8.0 0.00 0.25 0.20 78 1007.9
20260506173707 8 338 1.6 8.0 0.00 0.25 0.20 78 1007.9
20260506173205 8 338 1.6 6.4 0.00 0.25 0.20 78 1007.8
20260506172705 8 338 1.6 6.4 0.00 0.25 0.20 78 1007.8
20260506172205 8 338 1.6 9.7 0.00 0.25 0.20 78 1007.7
20260506171705 8 338 3.2 9.7 0.00 0.25 0.20 78 1007.6
20260506171205 8 337 3.2 9.7 0.00 0.25 0.20 78 1007.6
20260506170706 8 336 3.2 8.0 0.00 0.25 0.20 78 1007.7
20260506170207 8 336 3.2 9.7 0.00 0.25 0.20 78 1007.7
20260506165706 8 336 4.8 9.7 0.03 0.25 0.20 78 1007.7
20260506165205 8 336 3.2 9.7 0.03 0.25 0.20 78 1007.6
20260506164706 8 336 1.6 6.4 0.03 0.25 0.20 78 1007.7
20260506164205 8 336 1.6 9.7 0.03 0.25 0.20 78 1007.6
20260506163705 8 336 3.2 9.7 0.03 0.25 0.20 78 1007.6
20260506163210 8 336 4.8 9.7 0.03 0.25 0.20 78 1007.5
20260506162705 8 336 4.8 8.0 0.03 0.25 0.20 78 1007.6
20260506162213 8 336 3.2 8.0 0.03 0.25 0.20 78 1007.5
20260506161707 8 336 3.2 8.0 0.03 0.25 0.20 78 1007.5
20260506160705 8 336 3.2 9.7 0.03 0.25 0.20 78 1007.4
20260506160237 8 336 4.8 9.7 0.03 0.25 0.20 78 1007.4
20260506155705 8 336 4.8 9.7 0.00 0.23 0.18 78 1007.3
20260506155205 8 346 4.8 9.7 0.00 0.23 0.18 78 1007.3
20260506154205 8 347 3.2 9.7 0.00 0.23 0.18 78 1007.2
20260506153705 8 347 3.2 9.7 0.00 0.23 0.18 78 1007.2
20260506153205 8 351 3.2 12.9 0.00 0.23 0.18 78 1007.1
20260506152705 8 351 4.8 12.9 0.00 0.23 0.18 78 1007.2
20260506152206 8 351 3.2 12.9 0.00 0.23 0.18 78 1007.2
20260506151705 8 355 3.2 6.4 0.00 0.23 0.18 78 1007.2
20260506151205 8 342 3.2 8.0 0.00 0.23 0.18 78 1007.2
20260506150705 8 342 3.2 8.0 0.00 0.23 0.18 78 1007.2
20260506145706 8 342 1.6 8.0 0.00 0.23 0.18 78 1007.2
20260506145206 8 342 1.6 8.0 0.00 0.23 0.18 78 1007.2
20260506144705 8 342 1.6 9.7 0.00 0.23 0.18 78 1007.1
20260506144209 8 342 3.2 9.7 0.00 0.23 0.18 78 1007.1
20260506143705 8 342 3.2 9.7 0.00 0.23 0.18 78 1007.1
20260506143205 8 342 4.8 9.7 0.00 0.23 0.18 78 1007.1
20260506142706 8 346 3.2 9.7 0.00 0.23 0.18 78 1007.1
20260506141705 8 348 3.2 9.7 0.00 0.23 0.18 78 1007.1
20260506140706 8 348 3.2 9.7 0.00 0.23 0.18 78 1007.1
20260506140205 8 346 1.6 8.0 0.00 0.23 0.18 78 1007.1
20260506135705 8 346 3.2 9.7 0.00 0.23 0.18 78 1007.1
20260506135205 8 346 3.2 9.7 0.00 0.23 0.18 78 1007.1
20260506134705 8 346 3.2 9.7 0.00 0.23 0.18 78 1007.1
20260506134205 8 348 3.2 12.9 0.00 0.23 0.18 78 1007.1
20260506133707 8 348 4.8 12.9 0.03 0.23 0.18 78 1007.1
20260506133205 8 348 4.8 12.9 0.03 0.23 0.18 78 1007.1
20260506132705 8 351 4.8 11.3 0.03 0.23 0.18 78 1007.1
20260506132206 8 355 4.8 14.5 0.03 0.23 0.18 78 1007.0
20260506131705 8 355 6.4 16.1 0.03 0.23 0.18 78 1006.9
20260506131208 8 5 6.4 16.1 0.03 0.23 0.18 78 1006.9
20260506130704 8 5 4.8 16.1 0.03 0.23 0.18 78 1006.9
20260506130233 8 326 4.8 9.7 0.03 0.23 0.18 78 1006.9
20260506125705 8 327 3.2 16.1 0.03 0.23 0.18 78 1006.8
20260506125205 8 325 4.8 16.1 0.03 0.23 0.18 78 1006.7
20260506124707 8 326 6.4 16.1 0.03 0.23 0.18 78 1006.7
20260506124205 8 324 6.4 14.5 0.00 0.23 0.15 78 1006.7
20260506123205 8 339 4.8 14.5 0.00 0.23 0.15 78 1006.5
20260506122205 8 339 6.4 16.1 0.00 0.23 0.15 78 1006.5
20260506121206 8 342 4.8 16.1 0.00 0.23 0.15 78 1006.3
20260506120705 8 340 6.4 16.1 0.00 0.23 0.15 78 1006.4
20260506120205 8 340 6.4 16.1 0.00 0.23 0.15 78 1006.3
20260506114711 9 317 3.2 12.9 0.00 0.23 0.15 78 1006.1
20260506114206 9 318 3.2 14.5 0.00 0.23 0.15 78 1006.1
20260506113705 8 318 4.8 14.5 0.03 0.23 0.15 78 1006.0
20260506113205 8 314 4.8 14.5 0.03 0.23 0.15 78 1006.1
20260506112706 9 311 4.8 14.5 0.03 0.23 0.15 78 1006.1
20260506111705 9 323 4.8 14.5 0.03 0.23 0.15 78 1006.0
20260506111205 9 315 4.8 9.7 0.03 0.23 0.15 78 1006.0
20260506110706 9 328 3.2 9.7 0.03 0.23 0.15 78 1006.0
20260506110205 9 329 4.8 8.0 0.03 0.23 0.15 78 1006.0
20260506105705 9 329 4.8 9.7 0.03 0.23 0.15 78 1006.0
20260506105205 9 328 3.2 12.9 0.03 0.23 0.15 78 1006.0
20260506104706 9 328 3.2 12.9 0.03 0.23 0.15 78 1006.0
20260506104205 8 328 4.8 9.7 0.00 0.20 0.15 78 1006.0
20260506103705 8 331 4.8 9.7 0.00 0.20 0.15 77 1006.0
20260506103207 8 327 4.8 12.9 0.00 0.20 0.15 78 1005.9
20260506102205 9 326 4.8 12.9 0.00 0.20 0.15 78 1005.9
20260506101704 9 331 4.8 9.7 0.00 0.20 0.15 78 1005.9
20260506100705 9 333 3.2 9.7 0.00 0.20 0.15 77 1005.7
20260506100221 9 333 3.2 9.7 0.00 0.20 0.15 78 1005.7
20260506095206 9 333 3.2 12.9 0.00 0.20 0.15 78 1005.6
20260506094705 8 331 4.8 12.9 0.00 0.20 0.15 77 1005.6
20260506094206 8 331 4.8 9.7 0.00 0.20 0.15 77 1005.7
20260506093705 8 335 4.8 9.7 0.00 0.20 0.15 77 1005.6
20260506093205 8 336 3.2 12.9 0.00 0.20 0.15 77 1005.6
20260506092705 8 336 3.2 12.9 0.00 0.20 0.15 77 1005.6
20260506092209 8 336 3.2 12.9 0.00 0.20 0.15 77 1005.5
20260506091705 8 338 3.2 6.4 0.00 0.20 0.15 77 1005.4
20260506091205 8 340 3.2 12.9 0.00 0.20 0.15 77 1005.4
20260506090705 8 340 3.2 12.9 0.00 0.20 0.15 77 1005.5
20260506090205 8 340 3.2 14.5 0.00 0.20 0.15 77 1005.5
20260506085705 8 339 3.2 14.5 0.00 0.20 0.15 78 1005.4
20260506085205 8 339 3.2 12.9 0.03 0.20 0.15 78 1005.4
20260506084705 8 340 3.2 12.9 0.03 0.20 0.15 78 1005.3
20260506083207 8 340 4.8 9.7 0.03 0.20 0.15 77 1005.2
20260506082205 8 340 3.2 8.0 0.03 0.20 0.15 77 1005.1
20260506081705 8 340 3.2 14.5 0.03 0.20 0.15 77 1005.0
20260506080705 8 340 4.8 16.1 0.03 0.20 0.15 77 1005.0
20260506080206 8 335 4.8 16.1 0.03 0.20 0.15 77 1004.9
20260506073205 8 344 3.2 9.7 0.00 0.18 0.13 77 1004.7
20260506072705 8 343 3.2 9.7 0.00 0.18 0.13 77 1004.6
20260506072205 8 343 4.8 12.9 0.00 0.18 0.13 77 1004.6
20260506071705 8 343 4.8 12.9 0.00 0.18 0.13 77 1004.6
20260506071206 8 344 4.8 12.9 0.00 0.18 0.13 77 1004.6
20260506070705 8 342 4.8 12.9 0.03 0.18 0.13 77 1004.6
20260506070205 8 340 4.8 12.9 0.03 0.18 0.13 77 1004.6
20260506062205 8 331 1.6 6.4 0.03 0.18 0.13 78 1004.3
20260506061206 8 331 1.6 6.4 0.00 0.15 0.10 78 1004.3
20260506060706 8 331 1.6 8.0 0.00 0.15 0.10 78 1004.3
20260506060206 8 331 1.6 8.0 0.00 0.15 0.10 78 1004.1
20260506051205 8 331 1.6 4.8 0.00 0.15 0.10 78 1004.4
20260506050706 8 331 1.6 4.8 0.00 0.15 0.10 78 1004.4
20260506050205 8 331 1.6 6.4 0.03 0.15 0.10 78 1004.3
20260506044706 8 331 3.2 9.7 0.03 0.15 0.10 78 1004.3
20260506044205 8 331 3.2 8.0 0.03 0.15 0.10 78 1004.4
20260506043705 8 333 1.6 8.0 0.03 0.15 0.10 78 1004.4
20260506043205 8 333 1.6 6.4 0.03 0.15 0.10 78 1004.3
20260506042705 8 333 1.6 12.9 0.03 0.15 0.10 78 1004.4
20260506042205 8 333 3.2 12.9 0.03 0.15 0.10 78 1004.3
20260506041705 8 333 3.2 12.9 0.03 0.15 0.10 78 1004.3
20260506041212 8 340 1.6 8.0 0.03 0.15 0.10 78 1004.3
20260506040705 8 340 1.6 8.0 0.03 0.15 0.10 78 1004.3
20260506040232 8 340 3.2 12.9 0.00 0.15 0.08 78 1004.3
20260506035705 8 340 3.2 12.9 0.00 0.15 0.08 78 1004.4
20260506035205 8 340 3.2 12.9 0.00 0.15 0.08 78 1004.4
20260506034705 8 342 3.2 8.0 0.03 0.15 0.08 78 1004.4
20260506033706 8 344 3.2 8.0 0.03 0.15 0.08 78 1004.4
20260506032705 8 343 1.6 8.0 0.03 0.15 0.08 78 1004.5
20260506031708 8 343 3.2 9.7 0.03 0.15 0.08 78 1004.5
20260506031205 8 344 3.2 9.7 0.03 0.15 0.08 78 1004.5
20260506030705 8 344 3.2 8.0 0.03 0.15 0.08 78 1004.5
20260506030205 8 344 1.6 9.7 0.03 0.15 0.08 78 1004.6
20260506025705 8 344 1.6 9.7 0.03 0.15 0.08 78 1004.6
20260506025206 8 344 3.2 12.9 0.00 0.13 0.05 78 1004.7
20260506024705 8 343 3.2 12.9 0.00 0.13 0.05 78 1004.7
20260506024205 8 343 3.2 12.9 0.00 0.13 0.05 78 1004.7
20260506023705 8 342 3.2 6.4 0.00 0.13 0.05 78 1004.7
20260506023207 8 342 1.6 6.4 0.00 0.15 0.05 78 1004.8
20260506022705 8 342 3.2 6.4 0.00 0.15 0.05 78 1004.8
20260506022205 8 342 3.2 12.9 0.00 0.15 0.05 78 1004.8
20260506021705 8 342 3.2 12.9 0.00 0.15 0.05 78 1004.8
20260506021205 8 342 3.2 12.9 0.03 0.15 0.05 78 1004.8
20260506020705 8 347 3.2 8.0 0.03 0.15 0.05 78 1004.8
20260506020206 8 347 3.2 8.0 0.03 0.15 0.05 78 1004.8
20260506015205 8 347 3.2 12.9 0.03 0.15 0.05 78 1004.9
20260506014705 8 347 3.2 12.9 0.03 0.15 0.05 78 1004.9
20260506014206 8 347 4.8 8.0 0.03 0.15 0.05 78 1004.9
20260506013705 8 346 3.2 8.0 0.03 0.15 0.05 78 1004.9
20260506013206 8 346 4.8 8.0 0.03 0.15 0.05 78 1005.0
20260506012705 8 346 4.8 14.5 0.03 0.15 0.05 78 1005.0
20260506012205 8 346 3.2 14.5 0.03 0.15 0.05 78 1005.0
20260506011705 8 346 3.2 9.7 0.00 0.13 0.05 78 1005.0
20260506011205 8 345 4.8 9.7 0.03 0.13 0.05 78 1005.1
20260506010706 8 344 3.2 9.7 0.03 0.13 0.05 78 1005.1
20260506010205 8 344 3.2 9.7 0.03 0.13 0.05 78 1005.1
20260506005207 9 344 3.2 9.7 0.03 0.13 0.05 78 1005.2
20260506004705 8 343 4.8 9.7 0.03 0.13 0.05 78 1005.2
20260506004206 9 343 3.2 9.7 0.03 0.13 0.05 78 1005.2
20260506003205 9 342 3.2 14.5 0.03 0.13 0.05 78 1005.3